• In United Kingdom
  • List of Countries
  • For 7 days
  • Water Temperature
  • Satellite Maps
  • Weather Map
  • Weather Widgets
  • user-avatar
    Login

    Hourly Weather Fier

    Today, 22 August, Tuesday

    Time Temperature Precipitation Wind Pressure Humidity
    00:00 +22°C° 0 mm 4 mps 758 mmHg 68%
    01:00 +22°C° 0 mm 4 mps 758 mmHg 68%
    02:00 +21°C° 0 mm 4 mps 758 mmHg 68%
    03:00 +21°C° 0 mm 4 mps 758 mmHg 68%
    04:00 +20°C° 0 mm 4 mps 759 mmHg 68%
    05:00 +21°C° 0 mm 4 mps 759 mmHg 63%
    06:00 +22°C° 0 mm 4 mps 759 mmHg 58%
    07:00 +25°C° 0 mm 4 mps 759 mmHg 50%
    08:00 +26°C° 0 mm 4 mps 759 mmHg 45%
    09:00 +28°C° 0 mm 4 mps 759 mmHg 40%
    10:00 +29°C° 0 mm 4 mps 759 mmHg 35%
    11:00 +30°C° 0 mm 5 mps 759 mmHg 32%
    12:00 +33°C° 0 mm 5 mps 759 mmHg 29%
    13:00 +34°C° 0 mm 6 mps 759 mmHg 26%
    14:00 +33°C° 0 mm 6 mps 759 mmHg 27%
    15:00 +33°C° 0 mm 7 mps 759 mmHg 27%
    16:00 +33°C° 0 mm 7 mps 759 mmHg 27%
    17:00 +29°C° 0 mm 6 mps 759 mmHg 35%
    18:00 +27°C° 0 mm 6 mps 759 mmHg 42%
    19:00 +23°C° 0 mm 5 mps 759 mmHg 49%
    20:00 +23°C° 0 mm 4 mps 759 mmHg 50%
    21:00 +22°C° 0 mm 4 mps 760 mmHg 51%
    22:00 +21°C° 0 mm 4 mps 760 mmHg 52%
    23:00 +21°C° 0 mm 3 mps 760 mmHg 49%

    Tomorrow, 23 August, Wednesday

    Time Temperature Precipitation Wind Pressure Humidity
    00:00 +21°C° 0 mm 3 mps 760 mmHg 46%
    01:00 +21°C° 0 mm 3 mps 760 mmHg 43%
    02:00 +20°C° 0 mm 3 mps 760 mmHg 41%
    03:00 +20°C° 0 mm 3 mps 760 mmHg 40%
    04:00 +20°C° 0 mm 2 mps 760 mmHg 38%
    05:00 +21°C° 0 mm 2 mps 760 mmHg 36%
    06:00 +24°C° 0 mm 2 mps 760 mmHg 34%
    07:00 +25°C° 0 mm 2 mps 761 mmHg 33%
    08:00 +28°C° 0 mm 2 mps 761 mmHg 30%
    09:00 +30°C° 0 mm 2 mps 761 mmHg 28%
    10:00 +32°C° 0 mm 2 mps 761 mmHg 26%
    11:00 +34°C° 0 mm 3 mps 761 mmHg 24%
    12:00 +34°C° 0 mm 4 mps 761 mmHg 23%
    13:00 +35°C° 0 mm 4 mps 761 mmHg 22%
    14:00 +34°C° 0 mm 5 mps 761 mmHg 23%
    15:00 +34°C° 0 mm 5 mps 760 mmHg 25%
    16:00 +33°C° 0 mm 5 mps 760 mmHg 26%
    17:00 +30°C° 0 mm 4 mps 760 mmHg 32%
    18:00 +27°C° 0 mm 4 mps 761 mmHg 38%
    19:00 +25°C° 0 mm 3 mps 761 mmHg 44%
    20:00 +24°C° 0 mm 3 mps 761 mmHg 45%
    21:00 +23°C° 0 mm 2 mps 762 mmHg 46%
    22:00 +23°C° 0 mm 2 mps 762 mmHg 47%
    23:00 +23°C° 0 mm 2 mps 762 mmHg 46%

    Day after tomorrow, 24 August, Thursday

    Time Temperature Precipitation Wind Pressure Humidity
    00:00 +23°C° 0 mm 2 mps 762 mmHg 45%
    01:00 +21°C° 0 mm 2 mps 762 mmHg 44%
    02:00 +21°C° 0 mm 2 mps 762 mmHg 43%
    03:00 +21°C° 0 mm 2 mps 762 mmHg 42%
    04:00 +21°C° 0 mm 2 mps 762 mmHg 42%
    05:00 +23°C° 0 mm 2 mps 762 mmHg 39%
    06:00 +25°C° 0 mm 2 mps 762 mmHg 37%
    07:00 +27°C° 0 mm 2 mps 762 mmHg 34%
    08:00 +29°C° 0 mm 2 mps 762 mmHg 30%
    09:00 +31°C° 0 mm 2 mps 762 mmHg 27%
    10:00 +35°C° 0 mm 2 mps 762 mmHg 23%
    11:00 +35°C° 0 mm 3 mps 762 mmHg 22%
    12:00 +36°C° 0 mm 4 mps 762 mmHg 21%
    13:00 +37°C° 0 mm 4 mps 762 mmHg 20%
    14:00 +36°C° 0 mm 5 mps 761 mmHg 21%
    15:00 +36°C° 0 mm 5 mps 761 mmHg 22%
    16:00 +35°C° 0 mm 5 mps 761 mmHg 23%
    17:00 +33°C° 0 mm 5 mps 761 mmHg 29%
    18:00 +29°C° 0 mm 4 mps 762 mmHg 35%
    19:00 +26°C° 0 mm 3 mps 762 mmHg 41%
    20:00 +26°C° 0 mm 3 mps 762 mmHg 41%
    21:00 +25°C° 0 mm 2 mps 762 mmHg 41%
    22:00 +25°C° 0 mm 2 mps 763 mmHg 40%
    23:00 +25°C° 0 mm 2 mps 763 mmHg 39%

    25 August, Friday

    Time Temperature Precipitation Wind Pressure Humidity
    00:00 +25°C° 0 mm 2 mps 763 mmHg 38%
    01:00 +25°C° 0 mm 2 mps 763 mmHg 37%
    02:00 +24°C° 0 mm 2 mps 763 mmHg 36%
    03:00 +24°C° 0 mm 2 mps 762 mmHg 35%
    04:00 +24°C° 0 mm 2 mps 762 mmHg 35%
    05:00 +25°C° 0 mm 2 mps 762 mmHg 33%
    06:00 +27°C° 0 mm 2 mps 763 mmHg 32%
    07:00 +28°C° 0 mm 2 mps 763 mmHg 30%
    08:00 +31°C° 0 mm 2 mps 763 mmHg 27%
    09:00 +34°C° 0 mm 2 mps 763 mmHg 24%
    10:00 +37°C° 0 mm 2 mps 763 mmHg 20%
    11:00 +37°C° 0 mm 2 mps 762 mmHg 19%
    12:00 +38°C° 0 mm 3 mps 762 mmHg 18%
    13:00 +40°C° 0 mm 4 mps 762 mmHg 17%
    14:00 +38°C° 0 mm 4 mps 761 mmHg 18%
    15:00 +38°C° 0 mm 4 mps 761 mmHg 19%
    16:00 +38°C° 0 mm 4 mps 761 mmHg 20%
    17:00 +35°C° 0 mm 4 mps 761 mmHg 25%
    18:00 +31°C° 0 mm 3 mps 761 mmHg 31%
    19:00 +28°C° 0 mm 2 mps 761 mmHg 37%
    20:00 +27°C° 0 mm 2 mps 761 mmHg 36%
    21:00 +27°C° 0 mm 2 mps 762 mmHg 36%
    22:00 +27°C° 0 mm 2 mps 762 mmHg 36%
    23:00 +26°C° 0 mm 2 mps 762 mmHg 34%

    26 August, Saturday

    Time Temperature Precipitation Wind Pressure Humidity
    00:00 +26°C° 0 mm 2 mps 762 mmHg 33%
    01:00 +25°C° 0 mm 2 mps 761 mmHg 32%
    02:00 +25°C° 0 mm 2 mps 761 mmHg 32%
    03:00 +25°C° 0 mm 2 mps 761 mmHg 32%
    04:00 +25°C° 0 mm 2 mps 761 mmHg 32%
    05:00 +26°C° 0 mm 2 mps 761 mmHg 32%
    06:00 +28°C° 0 mm 2 mps 761 mmHg 31%
    07:00 +29°C° 0 mm 2 mps 761 mmHg 30%
    08:00 +32°C° 0 mm 1 mps 761 mmHg 26%
    09:00 +34°C° 0 mm 1 mps 761 mmHg 22%
    10:00 +37°C° 0 mm 1 mps 761 mmHg 18%
    11:00 +38°C° 0 mm 2 mps 761 mmHg 17%
    12:00 +39°C° 0 mm 3 mps 761 mmHg 16%
    13:00 +40°C° 0 mm 4 mps 760 mmHg 15%
    14:00 +40°C° 0 mm 4 mps 760 mmHg 17%
    15:00 +38°C° 0 mm 4 mps 760 mmHg 18%
    16:00 +38°C° 0 mm 4 mps 760 mmHg 19%
    17:00 +35°C° 0 mm 3 mps 760 mmHg 25%
    18:00 +31°C° 0 mm 3 mps 760 mmHg 31%
    19:00 +28°C° 0 mm 2 mps 760 mmHg 37%
    20:00 +28°C° 0 mm 2 mps 760 mmHg 36%
    21:00 +27°C° 0 mm 2 mps 760 mmHg 35%
    22:00 +27°C° 0 mm 1 mps 761 mmHg 34%
    23:00 +27°C° 0 mm 1 mps 761 mmHg 34%

    27 August, Sunday

    Time Temperature Precipitation Wind Pressure Humidity
    00:00 +26°C° 0 mm 2 mps 760 mmHg 33%
    01:00 +26°C° 0 mm 2 mps 760 mmHg 32%
    02:00 +26°C° 0 mm 2 mps 760 mmHg 32%
    03:00 +25°C° 0 mm 2 mps 760 mmHg 32%
    04:00 +25°C° 0 mm 2 mps 760 mmHg 32%
    05:00 +27°C° 0 mm 2 mps 760 mmHg 31%
    06:00 +28°C° 0 mm 2 mps 760 mmHg 30%
    07:00 +30°C° 0 mm 2 mps 760 mmHg 29%
    08:00 +32°C° 0 mm 1 mps 760 mmHg 25%
    09:00 +35°C° 0 mm 1 mps 760 mmHg 21%
    10:00 +39°C° 0 mm 1 mps 760 mmHg 17%
    11:00 +39°C° 0 mm 2 mps 760 mmHg 16%
    12:00 +40°C° 0 mm 3 mps 759 mmHg 15%
    13:00 +41°C° 0 mm 4 mps 759 mmHg 14%
    14:00 +41°C° 0 mm 4 mps 759 mmHg 16%
    15:00 +40°C° 0 mm 4 mps 759 mmHg 17%
    16:00 +40°C° 0 mm 5 mps 758 mmHg 18%
    17:00 +36°C° 0 mm 4 mps 759 mmHg 23%
    18:00 +33°C° 0 mm 3 mps 759 mmHg 29%
    19:00 +29°C° 0 mm 2 mps 759 mmHg 34%
    20:00 +28°C° 0 mm 2 mps 759 mmHg 33%
    21:00 +28°C° 0 mm 2 mps 759 mmHg 33%
    22:00 +28°C° 0 mm 2 mps 759 mmHg 32%
    23:00 +27°C° 0 mm 2 mps 759 mmHg 31%
    Show more